SCP
0 0 0 1 0 0 0 0 0 0 0 0 0 0 0 0 0 0 0 0 0 -0 -0 0 0 0 0 0 0 0 0 0 0 0 0 0 0 0
0 0 0 0 0 0 0 0 0 0 0 0 0 0 0 0 0 0 0 0 -0 -0 -0 0 0 0 0 0 0 0 0 0 0 0 0 0 0 0
0 0 0 0 0 0 0 0 0 0 0 0 0 0 0 0 0 0 0 0 0 0 0 0 0 0 0 0 0 0 0 0 0 0 0 0 0 0
0 0 0 0 0 0 0 0 0 0 0 0 0 0 0 0 0 0 0 1 0 0 0 0 0 0 0 0 0 0 0 0 0 0 0 0 0 0
0 0 0 0 0 0 0 0 0 0 0 0 0 0 0 0 0 0 0 0 0 0 0 0 0 0 0 0 0 0 0 0 0 0 0 0 0 0
0 0 0 0 0 0 0 0 0 0 0 0 0 0 0 0 0 0 0 0 0 0 0 0 0 0 0 0 0 0 0 0 0 0 0 0 0 0
0 0 0 0 0 0 0 0 0 0 0 0 0 0 0 0 0 0 0 0 -0 0 0 0 0 0 0 0 0 0 0 0 0 0 0 0 -0 -0
0 0 0 0 0 0 0 0 0 0 0 0 0 0 0 0 0 0 0 0 0 0 0 0 0 0 0 0 0 0 0 0 0 0 0 0 0 0
0 0 0 0 0 0 0 0 0 0 0 0 0 0 0 0 0 0 0 0 0 0 0 0 0 0 0 0 0 0 0 0 0 0 0 0 0 0
0 0 0 0 0 0 0 0 0 0 0 0 0 0 0 0 0 0 0 0 0 0 0 0 0 0 0 0 0 0 0 0 0 0 0 0 0 0
0 0 0 0 0 0 0 0 0 0 0 0 0 0 0 0 0 0 0 0 0 0 0 0 0 0 0 0 0 0 0 0 0 0 0 0 0 0
0 0 0 0 0 0 0 0 0 0 0 0 0 0 0 0 0 0 0 0 0 0 0 0 0 0 0 0 0 0 0 0 0 0 0 0 -0 0
0 0 0 0 0 0 0 0 0 0 0 0 0 0 0 0 0 0 0 0 0 0 0 0 0 0 0 0 0 0 0 0 0 0 0 0 0 0
0 0 0 0 0 0 0 0 0 -0 -0 -0 -0 -0 -0 -0 0 0 0 0 0 0 0 0 0 0 0 0 0 0 0 0 0 0 0 0 0 0
0 0 0 0 0 0 0 0 0 0 -0 -0 -0 -0 -0 0 0 0 0 0 0 0 0 0 0 0 0 0 0 0 0 0 0 0 0 0 0 0
0 0 0 0 0 0 0 0 0 0 -0 0 0 0 0 0 0 0 0 0 0 0 0 0 0 0 0 0 0 0 0 0 0 0 0 0 0 0
0 -0 0 0 0 0 0 0 0 0 0 0 0 0 0 0 0 0 0 0 0 0 0 0 0 0 0 0 0 0 0 0 0 0 0 0 0 0
0 0 0 0 0 0 0 0 0 0 0 0 0 0 0 0 0 0 0 0 0 0 0 0 0 0 0 0 0 0 0 0 0 0 0 0 0 0
0 0 0 0 0 0 0 0 0 0 0 0 0 0 0 0 0 0 0 0 0 0 0 0 0 0 0 0 0 0 0 0 0 -0 -0 0 0 0
0 0 0 0 0 0 0 0 0 0 0 0 0 0 0 0 0 0 0 0 0 0 0 0 0 0 0 0 0 0 0 0 0 0 -0 -0 0 0
0 0 0 0 0 0 0 0 0 0 0 0 0 0 0 0 0 0 0 0 0 0 0 0 0 0 0 0 0 0 0 0 0 0 0 0 0 0
0 0 0 0 0 0 0 0 0 0 0 0 0 0 0 0 0 0 0 0 0 0 0 0 0 0 0 0 0 0 0 0 0 -0 -0 0 0 0
0 0 0 -0 -0 0 0 0 0 0 0 0 0 0 0 0 0 0 0 0 0 0 0 0 0 0 0 0 0 0 0 0 0 0 0 -0 0 0
Wind_Speed_500mb
20 22 22 25 27 28 26 28 31 33 37 36 41 37 33 36 46 37 34 26 19 26 24 20 20 17 22 26 29 27 33 29 25 24 25 25 25 24
11 14 13 17 18 18 19 18 17 24 23 30 34 40 35 34 37 46 38 26 36 32 35 33 31 35 40 42 37 36 37 34 33 33 31 29 27 26
17 17 21 26 26 27 26 26 24 26 30 33 34 38 40 42 34 35 36 28 32 37 41 48 64 54 57 61 58 59 47 44 43 42 40 38 37 36
26 27 27 30 33 32 33 33 36 36 42 49 47 47 45 36 34 29 26 31 39 42 45 53 59 62 59 64 70 77 69 66 57 56 53 53 53 53
29 31 29 27 31 31 33 38 42 45 45 45 48 44 45 47 47 42 35 25 30 36 41 45 49 53 52 59 75 73 77 86 86 78 72 61 59 67
34 22 19 22 25 27 35 41 44 43 44 43 41 40 37 39 44 53 56 51 46 33 29 27 35 42 41 47 43 46 65 73 66 71 76 91 85 85
12 7 13 16 22 29 31 41 45 44 36 39 41 45 48 48 48 53 57 61 64 62 64 62 57 48 39 33 27 30 43 61 65 65 69 78 83 82
11 10 18 23 31 39 42 34 34 30 30 32 37 41 44 44 47 50 55 62 65 44 55 50 46 55 72 75 67 53 40 36 42 65 70 75 79 80
10 7 17 27 27 30 38 37 31 18 20 28 35 38 46 47 50 52 51 54 61 67 66 73 55 51 43 46 63 84 83 72 48 41 62 54 54 53
17 14 17 22 29 37 40 29 24 17 16 22 30 33 33 34 35 37 44 50 55 56 55 66 63 63 47 46 44 43 45 60 73 72 60 58 60 60
15 17 18 23 32 36 30 31 25 17 20 21 24 28 27 31 30 40 47 56 69 72 65 44 48 48 56 66 45 32 27 29 32 40 50 66 68 70
8 10 17 26 30 27 30 33 33 36 34 26 26 33 33 39 38 45 54 61 66 71 45 41 57 60 52 58 31 32 32 26 24 29 36 38 47 56
8 9 16 18 23 26 27 28 31 35 36 37 41 42 46 49 51 50 50 57 66 74 64 52 56 59 56 60 62 54 47 37 35 37 40 45 40 40
21 21 20 18 22 23 20 23 32 37 43 45 48 52 56 58 58 55 52 50 57 56 50 39 51 52 57 63 64 58 47 53 43 41 35 37 43 42
26 23 18 14 14 20 27 33 36 41 46 52 56 56 59 60 58 52 46 48 52 40 38 34 35 40 44 52 57 56 49 43 53 59 60 55 48 43
14 11 12 20 18 24 33 40 43 44 49 52 56 57 55 52 47 44 50 53 48 52 40 33 30 31 34 37 42 47 43 54 52 53 49 49 50 41
12 13 17 29 33 42 50 50 51 52 58 58 57 56 53 51 49 51 48 51 53 60 51 30 19 26 24 29 34 36 34 35 38 37 36 40 40 43
23 34 40 44 49 55 58 59 62 65 66 60 52 50 53 56 58 54 54 57 55 53 61 45 26 31 33 30 22 23 28 36 37 35 34 35 36 35
44 51 54 57 59 59 58 55 57 57 53 48 47 51 58 64 64 61 61 60 57 55 58 59 33 27 39 43 43 37 31 30 29 28 30 36 38 25
53 53 50 48 43 42 46 46 51 50 49 46 52 55 62 70 73 70 66 64 62 60 59 51 41 28 31 37 44 54 37 39 29 24 17 23 28 24
43 37 30 33 36 44 45 49 49 51 51 50 56 58 63 72 78 78 69 62 58 60 59 50 37 37 39 32 37 26 34 31 25 19 13 15 21 21
34 28 31 37 40 44 48 51 49 51 52 50 56 59 64 67 77 83 77 69 57 51 48 44 46 42 39 44 32 20 22 22 20 23 20 18 15 10
22 24 33 40 41 44 49 51 49 50 51 47 52 58 62 64 70 76 78 71 70 52 44 44 51 45 53 47 34 31 29 25 24 20 19 11 11 14
Wind_Direction_500mb
299 301 296 294 298 300 307 310 312 311 311 314 314 312 306 298 288 297 277 266 260 259 243 223 246 253 249 244 242 248 240 236 245 243 248 256 260 264
297 298 308 315 316 318 328 326 322 330 317 316 314 320 323 314 304 304 304 270 290 244 220 229 243 246 241 254 242 244 246 245 247 251 258 259 260 262
273 281 286 291 290 288 296 301 300 307 310 305 303 306 314 325 325 325 320 297 269 267 260 265 248 267 246 253 252 254 255 251 247 250 258 260 261 262
298 295 295 300 302 303 298 296 295 296 304 306 302 300 304 306 307 303 295 293 297 293 283 272 264 269 261 255 251 255 264 259 261 252 252 262 265 265
304 306 306 304 307 303 303 302 303 304 304 306 306 302 294 291 290 287 290 285 265 271 269 266 268 268 270 266 260 255 259 251 259 261 261 258 262 271
306 303 303 304 296 303 302 305 307 310 314 312 311 309 305 299 299 302 291 284 283 267 273 281 269 265 263 262 262 258 256 257 258 262 262 247 266 267
297 288 321 322 326 322 317 311 317 322 325 327 328 329 328 329 330 320 314 306 296 293 289 281 270 261 258 247 253 253 256 253 251 250 251 252 260 263
31 10 325 307 308 309 315 324 331 329 331 325 323 323 323 325 324 325 324 324 325 330 327 314 311 293 272 268 264 260 253 245 253 249 251 253 252 254
350 331 312 324 334 342 340 334 328 312 302 308 313 320 322 325 322 321 322 320 317 321 317 313 319 312 313 293 269 264 264 256 257 253 246 246 248 251
30 12 337 332 334 333 339 350 2 2 339 320 321 326 328 341 340 330 323 320 318 319 321 305 310 307 312 315 310 282 271 261 257 257 259 259 258 258
31 12 347 335 341 338 349 349 1 10 7 0 346 339 320 329 335 335 342 338 328 326 327 309 318 309 304 304 311 299 285 271 266 260 263 262 266 269
50 0 340 336 333 353 358 2 1 3 353 343 328 322 327 331 334 331 330 327 327 322 317 304 301 301 299 308 299 293 296 287 281 271 270 266 267 266
36 331 334 351 9 9 6 360 349 340 334 330 333 332 325 323 322 321 319 318 316 315 312 304 294 293 285 282 290 285 279 279 277 278 268 257 265 262
31 22 20 23 16 13 349 338 328 327 329 328 325 326 325 323 321 321 320 320 319 316 322 310 293 287 285 286 285 297 283 262 273 262 260 278 266 265
56 47 36 9 350 338 331 329 329 335 339 334 334 330 323 322 321 323 329 331 330 335 324 313 312 306 287 283 286 292 295 278 269 270 273 272 282 269
60 31 354 345 342 340 343 350 352 355 357 353 349 344 343 344 349 349 342 344 340 344 339 316 311 326 305 290 293 291 288 276 282 282 273 268 272 247
10 342 10 22 16 16 19 22 20 15 7 5 359 354 357 1 0 358 352 350 352 351 350 340 310 313 314 302 296 296 297 287 285 283 276 271 268 251
40 38 36 40 38 30 24 19 16 11 4 5 8 7 6 8 8 7 5 2 359 0 355 349 331 324 317 316 306 333 317 303 292 286 280 270 268 254
62 51 42 34 28 21 15 11 7 0 4 14 14 15 17 18 14 12 9 7 4 356 355 4 346 316 323 300 319 311 316 323 299 293 275 261 261 258
53 42 34 30 22 10 7 12 12 18 21 21 19 21 21 20 19 15 12 7 3 5 7 10 9 327 307 306 313 306 299 305 319 307 288 255 257 267
54 48 24 11 13 17 20 25 26 28 26 23 22 24 23 23 21 19 12 9 10 6 7 11 1 350 346 331 312 333 328 322 306 338 338 286 283 286
58 33 16 16 20 22 24 27 29 29 29 29 25 25 23 19 20 17 15 12 9 3 1 4 12 8 6 357 339 328 357 349 332 324 312 294 273 276
55 20 21 19 22 22 24 26 27 27 25 25 28 26 22 19 20 14 10 15 15 7 6 18 20 11 360 2 14 15 6 1 347 348 341 316 257 266
Wind_Speed_850mb
20 22 22 25 27 28 26 28 31 33 37 36 41 37 33 36 46 37 34 26 19 26 24 20 20 17 22 26 29 27 33 29 25 24 25 25 25 24
11 14 13 17 18 18 19 18 17 24 23 30 34 40 35 34 37 46 38 26 36 32 35 33 31 35 40 42 37 36 37 34 33 33 31 29 27 26
17 17 21 26 26 27 26 26 24 26 30 33 34 38 40 42 34 35 36 28 32 37 41 48 64 54 57 61 58 59 47 44 43 42 40 38 37 36
26 27 27 30 33 32 33 33 36 36 42 49 47 47 45 36 34 29 26 31 39 42 45 53 59 62 59 64 70 77 69 66 57 56 53 53 53 53
29 31 29 27 31 31 33 38 42 45 45 45 48 44 45 47 47 42 35 25 30 36 41 45 49 53 52 59 75 73 77 86 86 78 72 61 59 67
34 22 19 22 25 27 35 41 44 43 44 43 41 40 37 39 44 53 56 51 46 33 29 27 35 42 41 47 43 46 65 73 66 71 76 91 85 85
12 7 13 16 22 29 31 41 45 44 36 39 41 45 48 48 48 53 57 61 64 62 64 62 57 48 39 33 27 30 43 61 65 65 69 78 83 82
11 10 18 23 31 39 42 34 34 30 30 32 37 41 44 44 47 50 55 62 65 44 55 50 46 55 72 75 67 53 40 36 42 65 70 75 79 80
10 7 17 27 27 30 38 37 31 18 20 28 35 38 46 47 50 52 51 54 61 67 66 73 55 51 43 46 63 84 83 72 48 41 62 54 54 53
17 14 17 22 29 37 40 29 24 17 16 22 30 33 33 34 35 37 44 50 55 56 55 66 63 63 47 46 44 43 45 60 73 72 60 58 60 60
15 17 18 23 32 36 30 31 25 17 20 21 24 28 27 31 30 40 47 56 69 72 65 44 48 48 56 66 45 32 27 29 32 40 50 66 68 70
8 10 17 26 30 27 30 33 33 36 34 26 26 33 33 39 38 45 54 61 66 71 45 41 57 60 52 58 31 32 32 26 24 29 36 38 47 56
8 9 16 18 23 26 27 28 31 35 36 37 41 42 46 49 51 50 50 57 66 74 64 52 56 59 56 60 62 54 47 37 35 37 40 45 40 40
21 21 20 18 22 23 20 23 32 37 43 45 48 52 56 58 58 55 52 50 57 56 50 39 51 52 57 63 64 58 47 53 43 41 35 37 43 42
26 23 18 14 14 20 27 33 36 41 46 52 56 56 59 60 58 52 46 48 52 40 38 34 35 40 44 52 57 56 49 43 53 59 60 55 48 43
14 11 12 20 18 24 33 40 43 44 49 52 56 57 55 52 47 44 50 53 48 52 40 33 30 31 34 37 42 47 43 54 52 53 49 49 50 41
12 13 17 29 33 42 50 50 51 52 58 58 57 56 53 51 49 51 48 51 53 60 51 30 19 26 24 29 34 36 34 35 38 37 36 40 40 43
23 34 40 44 49 55 58 59 62 65 66 60 52 50 53 56 58 54 54 57 55 53 61 45 26 31 33 30 22 23 28 36 37 35 34 35 36 35
44 51 54 57 59 59 58 55 57 57 53 48 47 51 58 64 64 61 61 60 57 55 58 59 33 27 39 43 43 37 31 30 29 28 30 36 38 25
53 53 50 48 43 42 46 46 51 50 49 46 52 55 62 70 73 70 66 64 62 60 59 51 41 28 31 37 44 54 37 39 29 24 17 23 28 24
43 37 30 33 36 44 45 49 49 51 51 50 56 58 63 72 78 78 69 62 58 60 59 50 37 37 39 32 37 26 34 31 25 19 13 15 21 21
34 28 31 37 40 44 48 51 49 51 52 50 56 59 64 67 77 83 77 69 57 51 48 44 46 42 39 44 32 20 22 22 20 23 20 18 15 10
22 24 33 40 41 44 49 51 49 50 51 47 52 58 62 64 70 76 78 71 70 52 44 44 51 45 53 47 34 31 29 25 24 20 19 11 11 14
Wind_Direction_850mb
299 301 296 294 298 300 307 310 312 311 311 314 314 312 306 298 288 297 277 266 260 259 243 223 246 253 249 244 242 248 240 236 245 243 248 256 260 264
297 298 308 315 316 318 328 326 322 330 317 316 314 320 323 314 304 304 304 270 290 244 220 229 243 246 241 254 242 244 246 245 247 251 258 259 260 262
273 281 286 291 290 288 296 301 300 307 310 305 303 306 314 325 325 325 320 297 269 267 260 265 248 267 246 253 252 254 255 251 247 250 258 260 261 262
298 295 295 300 302 303 298 296 295 296 304 306 302 300 304 306 307 303 295 293 297 293 283 272 264 269 261 255 251 255 264 259 261 252 252 262 265 265
304 306 306 304 307 303 303 302 303 304 304 306 306 302 294 291 290 287 290 285 265 271 269 266 268 268 270 266 260 255 259 251 259 261 261 258 262 271
306 303 303 304 296 303 302 305 307 310 314 312 311 309 305 299 299 302 291 284 283 267 273 281 269 265 263 262 262 258 256 257 258 262 262 247 266 267
297 288 321 322 326 322 317 311 317 322 325 327 328 329 328 329 330 320 314 306 296 293 289 281 270 261 258 247 253 253 256 253 251 250 251 252 260 263
31 10 325 307 308 309 315 324 331 329 331 325 323 323 323 325 324 325 324 324 325 330 327 314 311 293 272 268 264 260 253 245 253 249 251 253 252 254
350 331 312 324 334 342 340 334 328 312 302 308 313 320 322 325 322 321 322 320 317 321 317 313 319 312 313 293 269 264 264 256 257 253 246 246 248 251
30 12 337 332 334 333 339 350 2 2 339 320 321 326 328 341 340 330 323 320 318 319 321 305 310 307 312 315 310 282 271 261 257 257 259 259 258 258
31 12 347 335 341 338 349 349 1 10 7 0 346 339 320 329 335 335 342 338 328 326 327 309 318 309 304 304 311 299 285 271 266 260 263 262 266 269
50 0 340 336 333 353 358 2 1 3 353 343 328 322 327 331 334 331 330 327 327 322 317 304 301 301 299 308 299 293 296 287 281 271 270 266 267 266
36 331 334 351 9 9 6 360 349 340 334 330 333 332 325 323 322 321 319 318 316 315 312 304 294 293 285 282 290 285 279 279 277 278 268 257 265 262
31 22 20 23 16 13 349 338 328 327 329 328 325 326 325 323 321 321 320 320 319 316 322 310 293 287 285 286 285 297 283 262 273 262 260 278 266 265
56 47 36 9 350 338 331 329 329 335 339 334 334 330 323 322 321 323 329 331 330 335 324 313 312 306 287 283 286 292 295 278 269 270 273 272 282 269
60 31 354 345 342 340 343 350 352 355 357 353 349 344 343 344 349 349 342 344 340 344 339 316 311 326 305 290 293 291 288 276 282 282 273 268 272 247
10 342 10 22 16 16 19 22 20 15 7 5 359 354 357 1 0 358 352 350 352 351 350 340 310 313 314 302 296 296 297 287 285 283 276 271 268 251
40 38 36 40 38 30 24 19 16 11 4 5 8 7 6 8 8 7 5 2 359 0 355 349 331 324 317 316 306 333 317 303 292 286 280 270 268 254
62 51 42 34 28 21 15 11 7 0 4 14 14 15 17 18 14 12 9 7 4 356 355 4 346 316 323 300 319 311 316 323 299 293 275 261 261 258
53 42 34 30 22 10 7 12 12 18 21 21 19 21 21 20 19 15 12 7 3 5 7 10 9 327 307 306 313 306 299 305 319 307 288 255 257 267
54 48 24 11 13 17 20 25 26 28 26 23 22 24 23 23 21 19 12 9 10 6 7 11 1 350 346 331 312 333 328 322 306 338 338 286 283 286
58 33 16 16 20 22 24 27 29 29 29 29 25 25 23 19 20 17 15 12 9 3 1 4 12 8 6 357 339 328 357 349 332 324 312 294 273 276
55 20 21 19 22 22 24 26 27 27 25 25 28 26 22 19 20 14 10 15 15 7 6 18 20 11 360 2 14 15 6 1 347 348 341 316 257 266